TIANMU-1 18

Last updated on Thu Oct 30 2025 00:02:23 GMT+0000 (Coordinated Universal Time)

1 58703U 24004D 25302.55244244 .00008101 00000+0 34081-3 0 9993 2 58703 97.4648 124.2131 0005697 85.0809 275.1078 15.23640051100619
UTC large
Height (km)
Speed (km/s)
/
Latitude / Longitude
Inclination (degrees)
Orbital Period (minutes)
Azimuth
Elevation
Range (km)
Doppler Factor

Next 0 passes for location: London (51.5072 / 0.1276)

Sorry there are no passes over London.